Youngstown, OH

1:11 PM EDT on July 26, 2017 (GMT -0400)
Youngstown-Warren Regional

Weather History for KYNG - February, 2012

Change the Weather History Date:

Sunday, February 5, 2012

  Actual Average Record
Temperature  
Mean Temperature 35 °F 27 °F  
Max Temperature 44 °F 34 °F 58 °F (2008)
Min Temperature 25 °F 20 °F -5 °F (2007)
Degree Days  
Heating Degree Days 30 38  
Month to date heating degree days 139 193  
Since 1 July heating degree days 3186 3816  
Cooling Degree Days 0 0  
Month to date cooling degree days 0 0  
Year to date cooling degree days 0 0  
Moisture  
Dew Point 24 °F    
Average Humidity 71    
Maximum Humidity 92    
Minimum Humidity 49    
Precipitation  
Precipitation 0.00 in 0.07 in 0.93 in (2008)
Month to date precipitation 0.04 0.37  
Year to date precipitation 4.55 2.92  
Snow  
Snow 0.00 in 0.40 in - ()
Month to date snowfall 0.3 2.3  
Since 1 July snowfall 36.6 38.3  
Snow Depth 0.00 in    
Sea Level Pressure  
Sea Level Pressure 30.19 in    
Wind  
Wind Speed 5 mph (North)    
Max Wind Speed 13 mph    
Max Gust Speed 17 mph    
Visibility 10 miles    
Events      
T = Trace of Precipitation, MM = Missing Value Source: NWS Daily Summary

Daily Weather History Graph

Daily Weather History Graph

Search for Another Location

Airport or City:

Trip Planner

Search our weather history database for the weather conditions in past years. The results will help you decide how hot, cold, wet, or windy it might be!

Date:

Astronomy

Feb. 05, 2012 Rise Set
Actual Time 7:30 AM EST 5:43 PM EST
Civil Twilight 7:01 AM EST 6:12 PM EST
Nautical Twilight 6:28 AM EST 6:45 PM EST
Astronomical Twilight 5:56 AM EST 7:17 PM EST
Moon 3:40 PM EST (2/5) 5:40 AM EST (2/5)
Length of Visible Light 11h 11m
Length of Day
10h 13m
Waxing Gibbous, 94% of the Moon is Illuminated
Feb 5
Waxing Gibbous
Feb 7
Full
Feb 14
Last Quarter
Feb 21
New
Feb 29
First Quarter

Hourly Weather History & Observations

Time (EST) Temp. Windchill Dew Point Humidity Pressure Visibility Wind Dir Wind Speed Gust Speed Precip Events Conditions
12:51 AM 30.0 °F - 25.0 °F 82% 30.13 in 10.0 mi Calm Calm - N/A   Overcast
1:51 AM 30.0 °F 24.1 °F 25.0 °F 82% 30.13 in 10.0 mi North 5.8 mph - N/A   Mostly Cloudy
2:51 AM 28.9 °F 22.8 °F 25.0 °F 85% 30.13 in 10.0 mi North 5.8 mph - N/A   Scattered Clouds
3:51 AM 27.0 °F 21.6 °F 23.0 °F 85% 30.13 in 10.0 mi North 4.6 mph - N/A   Mostly Cloudy
4:51 AM 27.0 °F 20.5 °F 23.0 °F 85% 30.13 in 10.0 mi North 5.8 mph - N/A   Scattered Clouds
5:51 AM 27.0 °F 18.7 °F 24.1 °F 89% 30.13 in 9.0 mi NNE 8.1 mph - N/A   Partly Cloudy
6:51 AM 26.1 °F 19.4 °F 24.1 °F 92% 30.17 in 8.0 mi North 5.8 mph - N/A   Scattered Clouds
7:51 AM 26.1 °F 19.4 °F 23.0 °F 88% 30.19 in 7.0 mi NNE 5.8 mph - N/A   Partly Cloudy
8:51 AM 30.0 °F - 26.1 °F 85% 30.20 in 10.0 mi Calm Calm - N/A   Partly Cloudy
9:51 AM 35.1 °F 28.6 °F 26.1 °F 70% 30.21 in 10.0 mi NE 8.1 mph - N/A   Partly Cloudy
10:51 AM 37.0 °F 33.3 °F 25.0 °F 62% 30.22 in 10.0 mi North 4.6 mph - N/A   Partly Cloudy
11:51 AM 39.0 °F 34.8 °F 24.1 °F 55% 30.22 in 10.0 mi North 5.8 mph - N/A   Scattered Clouds
12:51 PM 41.0 °F 35.2 °F 24.1 °F 51% 30.21 in 10.0 mi NNE 9.2 mph - N/A   Scattered Clouds
1:51 PM 41.0 °F 35.8 °F 24.1 °F 51% 30.20 in 10.0 mi NW 8.1 mph - N/A   Scattered Clouds
2:51 PM 43.0 °F 38.2 °F 26.1 °F 51% 30.20 in 10.0 mi NNE 8.1 mph - N/A   Mostly Cloudy
3:51 PM 42.1 °F 38.4 °F 24.1 °F 49% 30.20 in 10.0 mi NW 5.8 mph - N/A   Mostly Cloudy
4:51 PM 41.0 °F 36.4 °F 24.1 °F 51% 30.21 in 10.0 mi NW 6.9 mph - N/A   Scattered Clouds
5:51 PM 37.0 °F - 23.0 °F 57% 30.22 in 10.0 mi Calm Calm - N/A   Scattered Clouds
6:51 PM 35.1 °F 32.2 °F 24.1 °F 64% 30.24 in 10.0 mi NNW 3.5 mph - N/A   Clear
7:51 PM 32.0 °F 28.7 °F 24.1 °F 73% 30.25 in 10.0 mi NNW 3.5 mph - N/A   Clear
8:51 PM 30.9 °F - 24.1 °F 76% 30.25 in 10.0 mi Calm Calm - N/A   Clear
9:51 PM 28.0 °F - 24.1 °F 85% 30.25 in 10.0 mi Calm Calm - N/A   Clear
10:51 PM 28.9 °F 23.9 °F 24.1 °F 82% 30.23 in 10.0 mi SSW 4.6 mph - N/A   Clear
11:51 PM 28.9 °F 23.9 °F 23.0 °F 78% 30.22 in 10.0 mi SW 4.6 mph - N/A   Clear